This demonstration page uses our WeatherBlox Daily Observations layout. Learn more.

Left ArrowRight Arrow

39.01783, -85.05884

Hourly Observations for June 2, 2015

Temp ( °F °C ) Dew Point ( °F °C ) Humidity (%) Winds ( mph kmh ) Pressure ( in mb ) Visibility ( mi km ) Precip ( " mm )
12:52 am 00:52 Cloudy 55 12.8 49 9.4 80 80 NE 13 20 30.14 1021 10 16 N/A
1:52 am 01:52 Cloudy 54 12.2 48 8.9 80 80 NE 10 17 30.13 1020 10 16 N/A
2:52 am 02:52 Cloudy 54 12.2 49 9.4 83 83 NE 8 13 30.11 1020 10 16 N/A
3:52 am 03:52 Cloudy 54 12.2 49 9.4 83 83 NNE 8 13 30.10 1019 10 16 N/A
4:52 am 04:52 Cloudy 54 12.2 48 8.9 80 80 NNE 9 15 30.10 1019 9 14 N/A
5:52 am 05:52 Cloudy 54 12.2 48 8.9 80 80 NNE 8 13 30.10 1019 9 14 N/A
6:52 am 06:52 Cloudy 53 11.7 48 8.9 83 83 ENE 6 9 30.11 1020 9 14 N/A
7:52 am 07:52 Cloudy 53 11.7 49 9.4 86 86 NE 7 11 30.13 1020 7 11 N/A
8:52 am 08:52 Cloudy 54 12.2 49 9.4 83 83 NE 7 11 30.14 1021 7 11 N/A
9:52 am 09:52 Cloudy with Mist and Fog 54 12.2 49 9.4 83 83 NNE 6 9 30.15 1021 6 10 N/A
10:52 am 10:52 Cloudy with Mist and Fog 55 12.8 49 9.4 80 80 NNE 5 7 30.15 1021 6 10 N/A
11:52 am 11:52 Cloudy 56 13.3 49 9.4 77 77 N 9 15 30.15 1021 7 11 N/A
12:52 pm 12:52 Cloudy 58 14.4 50 10 75 75 N 8 13 30.15 1021 7 11 N/A
1:45 pm 13:45 Cloudy 59 15 50 10 72 72 NE 9 15 30.15 1021 8 13 N/A
1:52 pm 13:52 Cloudy 59 15 51 10.6 75 75 ENE 9 15 30.14 1021 7 11 N/A
2:52 pm 14:52 Cloudy 60 15.6 51 10.6 72 72 NNE 6 9 30.12 1020 7 11 N/A
3:52 pm 15:52 Cloudy 60 15.6 51 10.6 72 72 NNE 7 11 30.10 1019 7 11 N/A
4:52 pm 16:52 Cloudy 62 16.7 51 10.6 67 67 ENE 10 17 30.07 1018 8 13 N/A
5:52 pm 17:52 Cloudy 61 16.1 51 10.6 70 70 ENE 8 13 30.07 1018 10 16 N/A
6:52 pm 18:52 Cloudy 61 16.1 52 11.1 72 72 NNE 7 11 30.06 1018 10 16 N/A
7:52 pm 19:52 Cloudy 61 16.1 52 11.1 72 72 ENE 7 11 30.08 1019 10 16 N/A
8:52 pm 20:52 Cloudy 61 16.1 52 11.1 72 72 NE 7 11 30.09 1019 10 16 N/A
9:52 pm 21:52 Cloudy 61 16.1 52 11.1 72 72 N N/A 30.09 1019 10 16 0.02 0.51
10:52 pm 22:52 Cloudy 60 15.6 53 11.7 78 78 N N/A 30.09 1019 10 16 N/A
11:52 pm 23:52 Cloudy 59 15 53 11.7 81 81 NNW 3 6 30.10 1019 10 16 N/A

Powered by AerisWeather